Starlink 35509

operational
NORAD ID: 66200 Int'l Des: 2025-243 Owner: SPXS Country: US Constellation: starlink
LEOCIRCULAR

Über Starlink 35509

Beschreibung wird geladen...

Live-Position

3D-Globus wird geladen...

Nächste Überflüge

Höhenverlauf

Altitude vs Time

uPlot chart will show altitude changes over time

Zweizeiliger Elementsatz

1 66200C 25243Y 25299.73381944 .00909400 00000+0 14729-2 0 2995
2 66200 53.1579 157.0832 0008738 275.5026 7.8260 16.01719503 12
Epoch: 26. Okt. 2025 • Age: 127 hours

Aktueller Status

Höhe 240.1 km
Geschwindigkeit 7.77 km/s
Subsatellitenpunkt 5.83°N, 6.41°W
Startdatum 26. Okt. 2025
Alter 4 days
Typ internet

Technische Details

Klassifizierung Payload
Masse 575.00 kg
Trockenmasse 530.00 kg
Gesamtmasse 575.00 kg
Länge 0.30 m
Durchmesser 4.10 m
Spannweite 29.00 m
Form Box + pan
Hersteller SPXS
Bus-Typ Starlink V2MO
Phasenstatus In Orbit
Besitzer/Staat SPXS/US

Große Konstellationen

Loading constellations...